aerodrome LA FERTE GAUCHER, LFFG, pilots, aviation, flying | pilotspace.eu

LA FERTE GAUCHER

aerodrome LA FERTE GAUCHER

ICAO/ID: LFFG
France
web: Réservé au parachutisme et aux avions de servitude
show on the map

LFPM 310630Z AUTO 12004KT //// // NSC 12/11 Q1022

TAF LFPG 310500Z 3106/0112 15005KT CAVOK TX20/3114Z TN10/3106Z

general information

altitude: 538 ft
latitude: 48 45 21 N
longitude: 003 16 36 E

traffic information

RWY: 05/23: 3,609 ft (1,100 m) — surface unknown
report copyright

Online pilot logbook: free for each registered member! http://www.pilotlogbook.eu


last flights

RECENTLY ADDED

Beauty Kunovice

Beauty Kunovice

14/10/2014 (12x)

Jenki

CIAF 2014

CIAF 2014

07/09/2014 (22x)

Jenki

Virus start na bramkę

Virus start na bramkę ...

04/09/2014 (4x)

oslkj

The Arrow

The Arrow

15/08/2014 (29x)

lukin

STYLUS X3

STYLUS X3 "Beauty"

01/08/2014 (9x)

Jenki

Poprad

Poprad

31/07/2014 (43x)

Jenki

Let.příručka ALTO

09/03/2014 (15x)

Roman Máca

Let.příručka ALTO

09/03/2014 (4x)

Roman Máca